EDT,Max TemperatureF,Mean TemperatureF,Min TemperatureF,Max Dew PointF,MeanDew PointF,Min DewpointF,Max Humidity, Mean Humidity, Min Humidity, Max Sea Level PressureIn, Mean Sea Level PressureIn, Min Sea Level PressureIn, Max VisibilityMiles, Mean VisibilityMiles, Min VisibilityMiles, Max Wind SpeedMPH, Mean Wind SpeedMPH, Max Gust SpeedMPH,PrecipitationIn, CloudCover, Events, WindDirDegrees
2013-10-1,78,57,37,59,43,37,100,88,31,29.99,29.95,29.84,10,5,0,7,0,,0.00,3,Fog,305
2013-10-2,80,62,44,57,48,43,100,84,42,29.91,29.85,29.79,10,5,0,12,1,22,0.00,3,Fog,295
2013-10-3,77,60,44,54,46,42,96,66,31,30.08,30.02,29.92,10,10,10,9,3,,0.00,0,,282
2013-10-4,71,54,39,59,44,37,100,89,45,30.12,30.08,30.04,10,6,0,4,0,,0.00,2,Fog,265
2013-10-5,66,56,46,54,48,40,96,75,47,30.17,30.12,30.09,10,10,10,5,0,,0.00,7,,272
2013-10-6,53,49,46,47,44,35,100,86,54,30.30,30.24,30.18,10,6,2,5,1,,0.24,8,Rain,33
2013-10-7,66,57,48,66,52,46,100,95,81,30.21,29.99,29.72,10,3,0,14,1,26,0.82,8,Fog-Rain,225
2013-10-8,62,47,33,47,37,32,100,75,36,30.41,30.23,29.88,10,8,0,17,4,31,0.00,0,Fog,285
2013-10-9,64,46,28,45,32,27,100,88,37,30.51,30.44,30.38,10,4,0,7,1,,0.00,2,Fog,211
2013-10-10,69,49,30,52,36,28,100,90,42,30.38,30.33,30.21,10,4,0,4,0,,0.00,2,Fog,271
2013-10-11,69,56,42,52,45,41,100,84,45,30.22,30.19,30.15,10,9,1,5,0,,0.00,0,,95
2013-10-12,55,47,39,52,46,38,100,91,86,30.43,30.36,30.21,10,9,2,5,0,,0.00,6,Rain,140
2013-10-13,55,52,50,48,47,46,93,84,72,30.48,30.44,30.40,10,10,7,4,1,,0.00,8,,187
2013-10-14,69,57,48,54,48,45,89,73,49,30.39,30.31,30.23,10,10,10,6,2,,0.00,6,,168
2013-10-15,68,58,50,52,51,48,100,79,56,30.30,30.25,30.20,10,10,2,6,1,,0.00,7,,159
2013-10-16,62,52,43,52,50,42,97,86,62,30.19,30.08,29.90,10,10,5,6,1,,0.00,5,,114
2013-10-17,75,58,44,52,46,43,100,84,34,29.90,29.81,29.72,10,9,2,6,1,,0.00,4,Rain,259
2013-10-18,66,58,50,54,47,35,100,77,44,29.85,29.69,29.62,10,8,2,13,2,24,0.37,5,Rain,274
2013-10-19,66,50,36,46,39,34,97,65,35,29.93,29.86,29.74,10,10,10,8,4,17,0.00,1,,210
2013-10-20,62,53,44,45,36,28,93,59,29,29.97,29.79,29.66,10,10,9,10,4,23,0.00,2,Rain,246
2013-10-21,63,49,35,43,37,31,90,64,39,30.09,30.02,29.96,10,10,10,9,5,,0.00,0,,221
2013-10-22,55,46,37,51,43,32,97,85,67,29.94,29.81,29.71,10,10,8,9,1,,0.02,3,Rain,232
2013-10-23,55,43,33,35,31,27,92,70,37,29.77,29.69,29.59,10,10,10,5,2,,0.00,3,,235
2013-10-24,51,38,28,34,28,23,89,60,36,29.83,29.72,29.63,10,10,10,10,4,21,0.00,5,Rain,264
2013-10-25,50,40,33,31,26,22,76,58,39,30.10,29.99,29.85,10,10,10,12,6,22,0.00,5,,259
2013-10-26,48,36,26,32,28,23,88,66,44,30.12,29.99,29.85,10,10,10,9,2,17,0.00,6,,210
2013-10-27,55,44,30,35,31,24,89,65,45,30.02,29.86,29.78,10,10,10,9,3,21,0.00,5,,264
2013-10-28,55,38,24,32,26,20,92,66,43,30.37,30.13,30.02,10,10,10,18,4,30,0.00,3,Rain,263
2013-10-29,48,32,15,25,17,11,93,73,23,30.47,30.41,30.37,10,8,0,5,1,,0.00,1,Fog,192
2013-10-30,50,32,19,27,23,16,92,72,41,30.36,30.26,30.18,10,10,10,7,1,,0.00,2,,245
2013-10-31,43,32,23,42,32,21,100,90,70,30.25,30.06,29.76,10,6,1,4,0,,0.39,6,Rain,300